(°C)
(°C)
ЗСЗ
СЗ
СЗ
СЗ
ССЗ
ССЗ
ССЗ
(км/ч)
16-30
19-39
22-42
22-43
21-42
21-41
20-39
(мм)
0
0
0
0
0
0
0
(%)
0
0
0
0
6
6
1

Высота солнцестояния

/ 31.9°
sun-icon
UV 2
04:03
20:51
Убывающая луна (291°)
02:43
13:27

METAR для 55.6°С 37.27°В (UUWW)

Время Условия Температура/
Точка росы
Ветер Видимость Погода Облачность Давление Изменить Необработанный
VFR 8°C / -6°C 290º 10kt >10km - Clouds and Visibility OK 1005 No Significant change UUWW 240500Z 29005MPS CAVOK 08/M06 Q1005 R24/000070 NOSIG
VFR 8°C / -6°C 300º 10kt >10km - Clouds and Visibility OK 1005 No Significant change UUWW 240430Z 30005MPS CAVOK 08/M06 Q1005 R24/000070 NOSIG
VFR 7°C / -5°C 280º 10kt >10km - Clouds and Visibility OK 1005 No Significant change UUWW 240400Z 28005MPS CAVOK 07/M05 Q1005 R24/000070 NOSIG
VFR 7°C / -4°C 280º 6kt >10km - Clouds and Visibility OK 1005 No Significant change UUWW 240330Z 28003MPS CAVOK 07/M04 Q1005 R24/000070 NOSIG
VFR 7°C / -5°C 280º 6kt >10km - Clouds and Visibility OK 1005 No Significant change UUWW 240300Z 28003MPS CAVOK 07/M05 Q1005 R24/000070 NOSIG
VFR 6°C / -5°C 270º 4kt >10km - Clouds and Visibility OK 1005 No Significant change UUWW 240230Z 27002MPS CAVOK 06/M05 Q1005 R24/000070 NOSIG
VFR 6°C / -5°C 250º 4kt >10km - Clouds and Visibility OK 1005 No Significant change UUWW 240200Z 25002MPS CAVOK 06/M05 Q1005 R24/000070 NOSIG
VFR 7°C / -6°C 310º 6kt >10km - Clouds and Visibility OK 1005 No Significant change UUWW 240130Z 31003MPS CAVOK 07/M06 Q1005 R24/000070 NOSIG
VFR 7°C / -6°C 320º 8kt >10km - Clouds and Visibility OK 1005 No Significant change UUWW 240100Z 32004MPS CAVOK 07/M06 Q1005 R24/000070 NOSIG
VFR 7°C / -6°C 300º 4kt >10km - Clouds and Visibility OK 1005 No Significant change UUWW 240030Z 30002MPS CAVOK 07/M06 Q1005 R24/000070 NOSIG
VFR 7°C / -6°C 270º 4kt >10km - Clouds and Visibility OK 1005 No Significant change UUWW 240000Z 27002MPS CAVOK 07/M06 Q1005 R24/000070 NOSIG
VFR 7°C / -6°C 290º 4kt >10km - Clouds and Visibility OK 1004 No Significant change UUWW 232330Z 29002MPS CAVOK 07/M06 Q1004 R24/000070 NOSIG
VFR 8°C / -6°C 290º 4kt >10km - Clouds and Visibility OK 1004 No Significant change UUWW 232300Z 29002MPS CAVOK 08/M06 Q1004 R24/000070 NOSIG
VFR 8°C / -6°C 290º 6kt >10km - Clouds and Visibility OK 1005 No Significant change UUWW 232230Z 29003MPS CAVOK 08/M06 Q1005 R24/000070 NOSIG
VFR 8°C / -7°C 330º 8kt >10km - Clouds and Visibility OK 1004 No Significant change UUWW 232200Z 33004MPS CAVOK 08/M07 Q1004 R24/000070 NOSIG
VFR 9°C / -7°C 330º 6kt >10km - Clouds and Visibility OK 1004 No Significant change UUWW 232130Z 33003MPS CAVOK 09/M07 Q1004 R24/000070 NOSIG
VFR 9°C / -7°C 290º 6kt >10km - Clouds and Visibility OK 1004 No Significant change UUWW 232100Z 29003MPS CAVOK 09/M07 Q1004 R24/000070 NOSIG
VFR 9°C / -7°C 290º 4kt >10km - Clouds and Visibility OK 1004 No Significant change UUWW 232030Z 29002MPS CAVOK 09/M07 Q1004 R24/000070 NOSIG
VFR 9°C / -7°C 270º 6kt >10km - Clouds and Visibility OK 1004 No Significant change UUWW 232000Z 27003MPS CAVOK 09/M07 Q1004 R24/000070 NOSIG
VFR 9°C / -7°C 270º 6kt >10km - Clouds and Visibility OK 1004 No Significant change UUWW 231930Z 27003MPS CAVOK 09/M07 Q1004 R24/000070 NOSIG
VFR 10°C / -7°C 270º 6kt >10km - Clouds and Visibility OK 1004 No Significant change UUWW 231900Z 27003MPS CAVOK 10/M07 Q1004 R24/000070 NOSIG
VFR 11°C / -8°C 280º 6kt >10km - Clouds and Visibility OK 1004 No Significant change UUWW 231830Z 28003MPS CAVOK 11/M08 Q1004 R24/000070 NOSIG
VFR 11°C / -8°C 290º 6kt >10km - Clouds and Visibility OK 1004 No Significant change UUWW 231800Z 29003MPS CAVOK 11/M08 Q1004 R24/000070 NOSIG
VFR 12°C / -9°C 300º 8kt >10km - Clouds and Visibility OK 1004 No Significant change UUWW 231730Z 30004MPS CAVOK 12/M09 Q1004 R24/000070 NOSIG

VFR

8°C / -6°C

[Больше]
Ветер 290º 10kt
Видимость >10km
Погода -
Облачность Clouds and Visibility OK
Давление 1005
Изменить No Significant change
Необработанный UUWW 240500Z 29005MPS CAVOK 08/M06 Q1005 R24/000070 NOSIG

VFR

8°C / -6°C

[Больше]
Ветер 300º 10kt
Видимость >10km
Погода -
Облачность Clouds and Visibility OK
Давление 1005
Изменить No Significant change
Необработанный UUWW 240430Z 30005MPS CAVOK 08/M06 Q1005 R24/000070 NOSIG

VFR

7°C / -5°C

[Больше]
Ветер 280º 10kt
Видимость >10km
Погода -
Облачность Clouds and Visibility OK
Давление 1005
Изменить No Significant change
Необработанный UUWW 240400Z 28005MPS CAVOK 07/M05 Q1005 R24/000070 NOSIG

VFR

7°C / -4°C

[Больше]
Ветер 280º 6kt
Видимость >10km
Погода -
Облачность Clouds and Visibility OK
Давление 1005
Изменить No Significant change
Необработанный UUWW 240330Z 28003MPS CAVOK 07/M04 Q1005 R24/000070 NOSIG

VFR

7°C / -5°C

[Больше]
Ветер 280º 6kt
Видимость >10km
Погода -
Облачность Clouds and Visibility OK
Давление 1005
Изменить No Significant change
Необработанный UUWW 240300Z 28003MPS CAVOK 07/M05 Q1005 R24/000070 NOSIG

VFR

6°C / -5°C

[Больше]
Ветер 270º 4kt
Видимость >10km
Погода -
Облачность Clouds and Visibility OK
Давление 1005
Изменить No Significant change
Необработанный UUWW 240230Z 27002MPS CAVOK 06/M05 Q1005 R24/000070 NOSIG

VFR

6°C / -5°C

[Больше]
Ветер 250º 4kt
Видимость >10km
Погода -
Облачность Clouds and Visibility OK
Давление 1005
Изменить No Significant change
Необработанный UUWW 240200Z 25002MPS CAVOK 06/M05 Q1005 R24/000070 NOSIG

VFR

7°C / -6°C

[Больше]
Ветер 310º 6kt
Видимость >10km
Погода -
Облачность Clouds and Visibility OK
Давление 1005
Изменить No Significant change
Необработанный UUWW 240130Z 31003MPS CAVOK 07/M06 Q1005 R24/000070 NOSIG

VFR

7°C / -6°C

[Больше]
Ветер 320º 8kt
Видимость >10km
Погода -
Облачность Clouds and Visibility OK
Давление 1005
Изменить No Significant change
Необработанный UUWW 240100Z 32004MPS CAVOK 07/M06 Q1005 R24/000070 NOSIG

VFR

7°C / -6°C

[Больше]
Ветер 300º 4kt
Видимость >10km
Погода -
Облачность Clouds and Visibility OK
Давление 1005
Изменить No Significant change
Необработанный UUWW 240030Z 30002MPS CAVOK 07/M06 Q1005 R24/000070 NOSIG

VFR

7°C / -6°C

[Больше]
Ветер 270º 4kt
Видимость >10km
Погода -
Облачность Clouds and Visibility OK
Давление 1005
Изменить No Significant change
Необработанный UUWW 240000Z 27002MPS CAVOK 07/M06 Q1005 R24/000070 NOSIG

VFR

7°C / -6°C

[Больше]
Ветер 290º 4kt
Видимость >10km
Погода -
Облачность Clouds and Visibility OK
Давление 1004
Изменить No Significant change
Необработанный UUWW 232330Z 29002MPS CAVOK 07/M06 Q1004 R24/000070 NOSIG

VFR

8°C / -6°C

[Больше]
Ветер 290º 4kt
Видимость >10km
Погода -
Облачность Clouds and Visibility OK
Давление 1004
Изменить No Significant change
Необработанный UUWW 232300Z 29002MPS CAVOK 08/M06 Q1004 R24/000070 NOSIG

VFR

8°C / -6°C

[Больше]
Ветер 290º 6kt
Видимость >10km
Погода -
Облачность Clouds and Visibility OK
Давление 1005
Изменить No Significant change
Необработанный UUWW 232230Z 29003MPS CAVOK 08/M06 Q1005 R24/000070 NOSIG

VFR

8°C / -7°C

[Больше]
Ветер 330º 8kt
Видимость >10km
Погода -
Облачность Clouds and Visibility OK
Давление 1004
Изменить No Significant change
Необработанный UUWW 232200Z 33004MPS CAVOK 08/M07 Q1004 R24/000070 NOSIG

VFR

9°C / -7°C

[Больше]
Ветер 330º 6kt
Видимость >10km
Погода -
Облачность Clouds and Visibility OK
Давление 1004
Изменить No Significant change
Необработанный UUWW 232130Z 33003MPS CAVOK 09/M07 Q1004 R24/000070 NOSIG

VFR

9°C / -7°C

[Больше]
Ветер 290º 6kt
Видимость >10km
Погода -
Облачность Clouds and Visibility OK
Давление 1004
Изменить No Significant change
Необработанный UUWW 232100Z 29003MPS CAVOK 09/M07 Q1004 R24/000070 NOSIG

VFR

9°C / -7°C

[Больше]
Ветер 290º 4kt
Видимость >10km
Погода -
Облачность Clouds and Visibility OK
Давление 1004
Изменить No Significant change
Необработанный UUWW 232030Z 29002MPS CAVOK 09/M07 Q1004 R24/000070 NOSIG

VFR

9°C / -7°C

[Больше]
Ветер 270º 6kt
Видимость >10km
Погода -
Облачность Clouds and Visibility OK
Давление 1004
Изменить No Significant change
Необработанный UUWW 232000Z 27003MPS CAVOK 09/M07 Q1004 R24/000070 NOSIG

VFR

9°C / -7°C

[Больше]
Ветер 270º 6kt
Видимость >10km
Погода -
Облачность Clouds and Visibility OK
Давление 1004
Изменить No Significant change
Необработанный UUWW 231930Z 27003MPS CAVOK 09/M07 Q1004 R24/000070 NOSIG

VFR

10°C / -7°C

[Больше]
Ветер 270º 6kt
Видимость >10km
Погода -
Облачность Clouds and Visibility OK
Давление 1004
Изменить No Significant change
Необработанный UUWW 231900Z 27003MPS CAVOK 10/M07 Q1004 R24/000070 NOSIG

VFR

11°C / -8°C

[Больше]
Ветер 280º 6kt
Видимость >10km
Погода -
Облачность Clouds and Visibility OK
Давление 1004
Изменить No Significant change
Необработанный UUWW 231830Z 28003MPS CAVOK 11/M08 Q1004 R24/000070 NOSIG

VFR

11°C / -8°C

[Больше]
Ветер 290º 6kt
Видимость >10km
Погода -
Облачность Clouds and Visibility OK
Давление 1004
Изменить No Significant change
Необработанный UUWW 231800Z 29003MPS CAVOK 11/M08 Q1004 R24/000070 NOSIG

VFR

12°C / -9°C

[Больше]
Ветер 300º 8kt
Видимость >10km
Погода -
Облачность Clouds and Visibility OK
Давление 1004
Изменить No Significant change
Необработанный UUWW 231730Z 30004MPS CAVOK 12/M09 Q1004 R24/000070 NOSIG

TAF для 55.6°С 37.27°В (UUWW)

From till


Maximum Temperature 9ºC on . Minimum Temperature 1ºC on .
From till Wind 310º 10kt. Visibility 10km or more. Broken Clouds 1600ft.
Temporarly from till Wind 290º 16kt. Gust 27kt. Light Showers Rain Light Showers Snow . Few Clouds 600ft. Scattered Clouds 2000ft.
Temporarly from till Wind 350º 16kt. Gust 29kt. Light Showers Rain . Few Clouds 500ft. Scattered Clouds 2000ft.
Becoming from till Wind 10º 6kt. Visibility 10km or more. Broken Clouds 1600ft.

Необработанный: TAF UUWW 240156Z 2403/2503 31005MPS 9999 BKN016 TX09/2412Z TN01/2502Z TEMPO 2403/2407 29008G14MPS -SHRASN FEW006 SCT020CB TEMPO 2407/2417 35008G15MPS -SHRA FEW005 SCT020CB BECMG 2417/2420 01003MPS

Радарный и сверхкраткосрочный прогноз осадков для 55.6°С 37.27°В

Морось
Незначительные
Умеренные
Сильные
Очень Сильные
Град

Индикатор местности находится на 55.6°С 37.27°В. Анимация показывает радар осадков за последний час, а также прогноз погоды для 1h. Морось или небольшой снег могут быть невидимы для радара. Интенсивность осадков имеет цветовую кодировку - от светло-голубого до оранжевого.

Текущие спутниковые изображения и снимки дождя для 55.6°С 37.27°В

Указатель местности находится на 55.6°С 37.27°В. [Больше]

Спутниковое изображение в реальном времени сочетает в себе видимый свет в дневное время с инфракрасным излучением в ночное время. Ночью изображение получается не темным, так как инфракрасное излучение может обнаружить разницу температур. К сожалению, низкие облака и туман трудно отличить от температуры у поверхности земли и поэтому могут быть почти незаметны ночью. Спутниковые снимки Meteosat для Европы обновляются каждые 5 минут в режиме реального времени.Снимки GOES-16/GOES-17 (Северная и Южная Америка) и Химавари (Азия) обновляются каждые 10 минут.

Копирайт 2022 EUMETSAT / meteoblue. / Копирайт 2022 meteoblue

Обратно к последним данным